Regional Weather Roundup
Issued by NWS Little Rock, AR

Home | Current Version | Previous Version | Graphics & Text | Print | Product List | Glossary On
Versions: 1 2 3 4 5 6 7 8 9 10 11 12 13 14 15 16 17 18 19 20 21 22 23 24 25 26 27 28 29 30 31 32 33 34 35 36 37 38 39 40 41 42 43 44 45 46 47 48 49 50
000
ASUS44 KLZK 271405
RWRLZK

WEATHER ROUNDUP FOR ARKANSAS
NATIONAL WEATHER SERVICE LITTLE ROCK AR
900 AM CDT MON APR 27 2015

NOTE: "FAIR" INDICATES FEW OR NO CLOUDS BELOW 12,000 FEET WITH NO
SIGNIFICANT WEATHER AND/OR OBSTRUCTIONS TO VISIBILITY.

ARZ001-003-010-029-271500-
NORTHWEST ARKANSAS

CITY           SKY/WX    TMP DP  RH WIND       PRES   REMARKS
FAYETTEVILLE   CLOUDY    51  42  71 E13       29.99S
FORT SMITH     CLOUDY    53  45  74 E21G31    29.93F
HARRISON       CLOUDY    49  40  71 E7        30.06R
BENTONVILLE    CLOUDY    52  37  58 E14G28    30.01F
ROGERS         CLOUDY    51  37  58 E14       30.01F
SILOAM SPGS    CLOUDY    52  37  58 E10G18    29.99F
HIGHFILL       CLOUDY    51  40  65 E10       30.00F
$$

ARZ004-005-016-271500-
NORTH CENTRAL ARKANSAS

CITY           SKY/WX    TMP DP  RH WIND       PRES   REMARKS
BATESVILLE     CLOUDY    52  39  62 N8        30.05S
FLIPPIN        CLOUDY    50  39  66 NE5       30.07R
MTN HOME       CLOUDY    49  38  65 E5        30.07R
$$

ARZ040-041-271500-
WEST CENTRAL ARKANSAS

CITY           SKY/WX    TMP DP  RH WIND       PRES   REMARKS
MENA           CLOUDY    54  50  87 E14G21    29.91F
MOUNT IDA      CLOUDY    53  48  83 E6        29.92S
$$

ARZ009-017-025-026-028-271500-
NORTHEAST ARKANSAS

CITY           SKY/WX    TMP DP  RH WIND       PRES   REMARKS
CORNING          N/A     50  37  62 NE14      30.09R
JONESBORO      CLOUDY    51  40  65 NE9       30.05S
NEWPORT        CLOUDY    52  43  71 NE14      30.07R
WALNUT RIDGE   CLOUDY    50  37  62 NE9       30.07R
BLYTHEVILLE    CLOUDY    53  42  66 NE13      30.05R
NW BLYTHEVILLE CLOUDY    52  43  71 N8        30.05
$$

ARZ022-023-033-042-044-271500-
CENTRAL ARKANSAS

CITY           SKY/WX    TMP DP  RH WIND       PRES   REMARKS
LITTLE ROCK    LGT RAIN  53  45  74 NE13      29.97F
N LITTLE ROCK  CLOUDY    50  47  90 NE13      29.97F
JACKSONVILLE   CLOUDY    53  43  70 NE14      29.98F
SEARCY         CLOUDY    53  43  68 NE13      30.03F
HOT SPRINGS    CLOUDY    52  47  83 E13       29.95R
RUSSELLVILLE   CLOUDY    53  42  66 NE14      29.99S
$$

ARZ036-271500-
EAST ARKANSAS

CITY           SKY/WX    TMP DP  RH WIND       PRES   REMARKS
WEST MEMPHIS   CLOUDY    53  44  71 NE12      30.02R
$$

ARZ050-053-066-070-073-271500-
SOUTHWEST ARKANSAS

CITY           SKY/WX    TMP DP  RH WIND       PRES   REMARKS
ARKADELPHIA    FAIR      55  55 100 E5        29.95S
CAMDEN         RAIN      55  50  82 NE10      29.94F
TEXARKANA      CLOUDY    55  52  89 E14G25    29.84R
EL DORADO      LGT RAIN  56  51  84 NE12      29.90F
DE QUEEN       CLOUDY    56  51  84 E13G22    29.85F
$$

ARZ056-057-069-271500-
SOUTHEAST ARKANSAS

CITY           SKY/WX    TMP DP  RH WIND       PRES   REMARKS
PINE BLUFF     CLOUDY    55  50  83 NE13      29.99R
STUTTGART      CLOUDY    54  45  71 NE9       30.02R
MONTICELLO     CLOUDY    57  49  74 NE9       29.98R

$$




USA.gov is the U.S. government's official web portal to all federal, state and local government web resources and services.